Weather History for KCKV - November, 2012

Change the Weather History Date:

Wednesday, November 7, 2012

  Actual Average Record
Temperature  
Mean Temperature 45 °F -  
Max Temperature 49 °F - 75 °F (2004)
Min Temperature 40 °F - 22 °F (1971)
Degree Days  
Heating Degree Days 20    
Month to date heating degree days 119  
Since 1 July heating degree days 417  
Cooling Degree Days 0    
Month to date cooling degree days 0  
Moisture  
Dew Point 42 °F    
Average Humidity 88    
Maximum Humidity 100    
Minimum Humidity 76    
Precipitation  
Precipitation 0.07 in - 2.05 in (1986)
Month to date precipitation 0.24  
Sea Level Pressure  
Sea Level Pressure 29.99 in    
Wind  
Wind Speed 7 mph (NW)    
Max Wind Speed 13 mph    
Max Gust Speed 16 mph    
Visibility 6 miles    
Events Rain    
T = Trace of Precipitation, MM = Missing Value Source: NWS Daily Summary

Daily Weather History Graph

Daily Weather History Graph

Search for Another Location

Airport or City:

Trip Planner

Search our weather history database for the weather conditions in past years. The results will help you decide how hot, cold, wet, or windy it might be!

Date:

Astronomy

Nov. 07, 2012 Rise Set
Actual Time 6:19 AM CST 4:46 PM CST
Civil Twilight 5:52 AM CST 5:13 PM CST
Nautical Twilight 5:21 AM CST 5:44 PM CST
Astronomical Twilight 4:51 AM CST 6:14 PM CST
Moon No Moon Rise 12:45 PM CST (11/7)
Length of Visible Light 11h 21m
Length of Day
10h 26m
Last Quarter, 43% of the Moon is Illuminated
Nov 7
Last Quarter
Nov 13
New
Nov 20
First Quarter
Nov 28
Full
Dec 6
Last Quarter

Hourly Weather History & Observations

Time (CST) Temp. Windchill Dew Point Humidity Pressure Visibility Wind Dir Wind Speed Gust Speed Precip Events Conditions
12:03 AM 46.4 °F 44.3 °F 44.6 °F 93% 29.93 in 5.0 mi West 4.6 mph - N/A   Overcast
12:28 AM 46.4 °F 44.3 °F 44.6 °F 93% 29.92 in 5.0 mi West 4.6 mph - 0.00 in Rain Light Rain
12:50 AM 46.4 °F 42.4 °F 44.6 °F 93% 29.92 in 5.0 mi West 8.1 mph - 0.00 in   Overcast
12:52 AM 46.0 °F 41.9 °F 44.1 °F 93% 29.92 in 5.0 mi West 8.1 mph - 0.00 in   Overcast
12:59 AM 46.4 °F 41.9 °F 44.6 °F 93% 29.92 in 6.0 mi WNW 9.2 mph - N/A   Overcast
1:15 AM 46.4 °F 42.4 °F 42.8 °F 87% 29.92 in 7.0 mi WNW 8.1 mph - N/A   Overcast
1:22 AM 46.4 °F 41.9 °F 42.8 °F 87% 29.92 in 7.0 mi WNW 9.2 mph - N/A   Overcast
1:52 AM 46.0 °F 41.9 °F 43.0 °F 89% 29.92 in 7.0 mi WNW 8.1 mph - N/A   Overcast
2:36 AM 44.6 °F 41.4 °F 42.8 °F 93% 29.91 in 6.0 mi WNW 5.8 mph - N/A   Mostly Cloudy
2:52 AM 45.0 °F 41.8 °F 43.0 °F 93% 29.92 in 5.0 mi West 5.8 mph - N/A   Overcast
3:13 AM 44.6 °F 42.2 °F 42.8 °F 93% 29.91 in 6.0 mi West 4.6 mph - N/A   Overcast
3:52 AM 43.0 °F 39.5 °F 41.0 °F 93% 29.92 in 5.0 mi West 5.8 mph - N/A   Mostly Cloudy
3:59 AM 42.8 °F 39.3 °F 41.0 °F 93% 29.92 in 4.0 mi West 5.8 mph - N/A   Scattered Clouds
4:14 AM 42.8 °F 39.3 °F 41.0 °F 93% 29.92 in 4.0 mi West 5.8 mph - N/A   Mostly Cloudy
4:26 AM 42.8 °F 38.6 °F 41.0 °F 93% 29.93 in 4.0 mi West 6.9 mph - N/A   Scattered Clouds
4:52 AM 41.0 °F 38.0 °F 39.9 °F 96% 29.93 in 4.0 mi West 4.6 mph - N/A   Clear
5:52 AM 39.9 °F 35.8 °F 39.0 °F 97% 29.94 in 4.0 mi West 5.8 mph - N/A   Scattered Clouds
6:01 AM 41.0 °F 38.0 °F 39.2 °F 93% 29.94 in 4.0 mi West 4.6 mph - N/A   Mostly Cloudy
6:35 AM 42.8 °F 40.1 °F 39.2 °F 87% 29.94 in 4.0 mi West 4.6 mph - N/A   Overcast
6:52 AM 43.0 °F 40.3 °F 41.0 °F 93% 29.96 in 5.0 mi West 4.6 mph - N/A   Overcast
7:52 AM 44.1 °F 42.5 °F 41.0 °F 89% 29.97 in 5.0 mi WNW 3.5 mph - N/A   Overcast
8:41 AM 44.6 °F 41.4 °F 42.8 °F 93% 29.97 in 3.0 mi WNW 5.8 mph - 0.00 in   Overcast
8:46 AM 44.6 °F 40.7 °F 42.8 °F 93% 29.97 in 2.5 mi WNW 6.9 mph - 0.00 in   Overcast
8:52 AM 44.1 °F 40.8 °F 43.0 °F 96% 29.98 in 2.0 mi WNW 5.8 mph - 0.00 in   Overcast
9:25 AM 44.6 °F 39.7 °F 42.8 °F 93% 29.98 in 1.8 mi NW 9.2 mph - 0.01 in Rain Light Rain
9:47 AM 44.6 °F 40.2 °F 42.8 °F 93% 29.99 in 2.0 mi NNW 8.1 mph - 0.03 in Rain Light Rain
9:48 AM 44.6 °F 40.2 °F 42.8 °F 93% 29.99 in 2.0 mi NNW 8.1 mph - 0.03 in Rain Light Rain
9:52 AM 45.0 °F 40.1 °F 43.0 °F 93% 29.99 in 2.0 mi NNW 9.2 mph - 0.03 in Rain Light Rain
10:09 AM 44.6 °F 39.2 °F 42.8 °F 93% 29.99 in 3.0 mi NNW 10.4 mph - 0.01 in Rain Light Rain
10:18 AM 44.6 °F 39.7 °F 42.8 °F 93% 30.00 in 3.0 mi NNW 9.2 mph - 0.01 in Rain Light Rain
10:45 AM 46.4 °F 42.4 °F 42.8 °F 87% 30.00 in 5.0 mi NNW 8.1 mph - 0.03 in Rain Light Rain
10:52 AM 46.0 °F 41.9 °F 42.1 °F 86% 30.01 in 5.0 mi NNW 8.1 mph - 0.03 in Rain Light Rain
11:52 AM 46.9 °F - 42.1 °F 83% 30.00 in 9.0 mi North 8.1 mph - 0.01 in   Overcast
12:52 PM 46.9 °F - 42.1 °F 83% 30.00 in 10.0 mi NNW 9.2 mph - N/A   Overcast
12:59 PM 48.2 °F - 42.8 °F 82% 30.00 in 10.0 mi NNW 8.1 mph - N/A   Mostly Cloudy
1:26 PM 46.4 °F 42.4 °F 41.0 °F 81% 30.00 in 10.0 mi NNW 8.1 mph - N/A   Overcast
1:52 PM 46.9 °F - 41.0 °F 80% 30.01 in 10.0 mi NNW 12.7 mph - N/A   Overcast
2:17 PM 46.4 °F 41.5 °F 41.0 °F 81% 30.01 in 9.0 mi NNW 10.4 mph - N/A   Scattered Clouds
2:52 PM 48.0 °F - 41.0 °F 77% 30.03 in 9.0 mi NNW 10.4 mph - N/A   Overcast
3:52 PM 48.0 °F - 41.0 °F 77% 30.05 in 10.0 mi NNW 9.2 mph - N/A   Overcast
4:16 PM 48.2 °F - 41.0 °F 76% 30.06 in 10.0 mi NW 10.4 mph - N/A   Overcast
4:52 PM 46.0 °F 41.9 °F 39.9 °F 79% 30.08 in 10.0 mi NW 8.1 mph - N/A   Overcast
5:52 PM 45.0 °F 40.6 °F 39.9 °F 82% 30.11 in 10.0 mi NW 8.1 mph - N/A   Overcast
6:52 PM 45.0 °F 41.2 °F 39.0 °F 80% 30.12 in 10.0 mi NW 6.9 mph - N/A   Overcast
7:52 PM 45.0 °F 41.2 °F 39.9 °F 82% 30.14 in 10.0 mi NNW 6.9 mph - N/A   Overcast
8:52 PM 45.0 °F 42.6 °F 39.9 °F 82% 30.16 in 10.0 mi NNW 4.6 mph - N/A   Overcast
9:52 PM 45.0 °F 42.6 °F 39.9 °F 82% 30.16 in 10.0 mi NNW 4.6 mph - N/A   Overcast
10:52 PM 45.0 °F 42.6 °F 41.0 °F 86% 30.16 in 9.0 mi NNW 4.6 mph - N/A   Overcast
11:52 PM 45.0 °F 41.8 °F 41.0 °F 86% 30.16 in 8.0 mi NNW 5.8 mph - N/A   Overcast